Location: Rokycany
(49.7330°N, 13.6000°E)
Time: 20:11:07
(UTC+02:00)

ISS - Pass Details

Date: 28 March 2019
Orbit: 408 x 410 km, 51.6° (Epoch: 26 April)

Event Time Altitude Azimuth Distance (km) Brightness Sun altitude
Rises 19:17:13 0° 259° (WSW) 2,334 1.3 -8.3°
Reaches altitude 10° 19:19:18 10° 261° (W) 1,473 0.2 -8.6°
Maximum altitude 19:22:36 75° 347° (NNW) 428 -3.7 -9.1°
Drops below altitude 10° 19:25:50 11° 73° (ENE) 1,446 -1.5 -9.6°
Enters shadow 19:25:52 10° 73° (ENE) 1,462 -1.5 -9.6°
